Weather History for NW Arkansas Airport, AR

Change the Weather History Date:

Friday, March 1, 2013

  Actual Average Record
Temperature  
Mean Temperature 30 °F -  
Max Temperature 33 °F - - ()
Min Temperature 25 °F - - ()
Degree Days  
Heating Degree Days 36    
Moisture  
Dew Point 22 °F    
Average Humidity 74    
Maximum Humidity 88    
Minimum Humidity 60    
Precipitation  
Precipitation 0.00 in - - ()
Sea Level Pressure  
Sea Level Pressure 30.22 in    
Wind  
Wind Speed 9 mph (NW)    
Max Wind Speed 16 mph    
Max Gust Speed 21 mph    
Visibility 9 miles    
Events Snow    
T = Trace of Precipitation, MM = Missing Value Source: NWS Daily Summary

Daily Weather History Graph

Daily Weather History Graph

Search for Another Location

Airport:

Trip Planner

Search our weather history database for the weather conditions in past years. The results will help you decide how hot, cold, wet, or windy it might be!

Date:

Astronomy

Mar. 01, 2013 Rise Set
Actual Time 6:47 AM CST 6:12 PM CST
Civil Twilight 6:21 AM CST 6:38 PM CST
Nautical Twilight 5:51 AM CST 7:07 PM CST
Astronomical Twilight 5:21 AM CST 7:37 PM CST
Moon 10:36 PM CST (3/1) 8:43 AM CST (3/1)
Length of Visible Light 12h 16m
Length of Day
11h 25m
Waning Gibbous, 83% of the Moon is Illuminated
Mar 1
Waning Gibbous
Mar 4
Last Quarter
Mar 11
New
Mar 19
First Quarter
Mar 27
Full

Hourly Weather History & Observations

Time (CST) Temp. Windchill Dew Point Humidity Pressure Visibility Wind Dir Wind Speed Gust Speed Precip Events Conditions
12:53 AM 30.0 °F 21.1 °F 24.1 °F 79% 30.19 in 10.0 mi NNW 10.4 mph - N/A   Overcast
4:53 AM 30.0 °F 23.2 °F 23.0 °F 75% 30.18 in 10.0 mi NNW 6.9 mph - N/A   Overcast
6:30 AM 28.4 °F 22.2 °F 24.8 °F 86% 30.16 in 10.0 mi NW 5.8 mph - N/A   Overcast
6:53 AM 28.9 °F 23.9 °F 23.0 °F 78% 30.19 in 10.0 mi WNW 4.6 mph - N/A   Overcast
7:21 AM 30.2 °F 25.4 °F 23.0 °F 75% 30.17 in 10.0 mi NW 4.6 mph - N/A   Overcast
8:53 AM 30.0 °F 21.7 °F 25.0 °F 82% 30.20 in 10.0 mi NW 9.2 mph - N/A   Overcast
9:53 AM 30.0 °F 18.7 °F 25.0 °F 82% 30.22 in 10.0 mi NNW 16.1 mph 20.7 mph N/A   Overcast
10:53 AM 30.0 °F 20.5 °F 21.9 °F 72% 30.24 in 10.0 mi NNW 11.5 mph - N/A   Overcast
11:53 AM 30.9 °F 21.2 °F 21.9 °F 69% 30.24 in 10.0 mi NNW 12.7 mph - N/A   Overcast
12:53 PM 32.0 °F 23.6 °F 21.0 °F 64% 30.22 in 10.0 mi NNW 10.4 mph - N/A   Overcast
1:05 PM 33.8 °F 25.8 °F 21.2 °F 60% 30.18 in 10.0 mi WNW 10.4 mph - N/A   Overcast
1:20 PM 32.0 °F 24.2 °F 21.2 °F 64% 30.18 in 10.0 mi NW 9.2 mph - N/A   Overcast
1:34 PM 32.0 °F 23.0 °F 21.2 °F 64% 30.18 in 10.0 mi NNW 11.5 mph 18.4 mph N/A   Overcast
1:50 PM 32.0 °F 23.0 °F 21.2 °F 64% 30.17 in 10.0 mi NW 11.5 mph 19.6 mph N/A   Overcast
1:53 PM 30.9 °F 22.2 °F 21.0 °F 67% 30.20 in 10.0 mi NW 10.4 mph 19.6 mph N/A   Overcast
3:53 PM 28.0 °F 18.6 °F 19.9 °F 72% 30.22 in 10.0 mi NNW 10.4 mph - N/A   Overcast
4:53 PM 28.0 °F 18.1 °F 19.9 °F 72% 30.23 in 10.0 mi NW 11.5 mph - N/A   Overcast
5:53 PM 28.0 °F 19.3 °F 19.0 °F 69% 30.24 in 9.0 mi NNW 9.2 mph 18.4 mph N/A   Overcast
6:53 PM 27.0 °F 18.0 °F 19.0 °F 72% 30.26 in 10.0 mi NNW 9.2 mph - 0.00 in   Overcast
8:53 PM 26.1 °F 16.8 °F 21.0 °F 81% 30.28 in 6.0 mi NNW 9.2 mph - 0.00 in Snow Light Snow
9:53 PM 26.1 °F 15.0 °F 21.0 °F 81% 30.28 in 8.0 mi NNW 12.7 mph - 0.00 in Snow Light Snow
10:53 PM 26.1 °F 17.6 °F 21.9 °F 84% 30.28 in 4.0 mi NNW 8.1 mph - 0.00 in Snow Light Snow
11:53 PM 25.0 °F 16.3 °F 21.9 °F 88% 30.28 in 9.0 mi NNW 8.1 mph - 0.00 in   Overcast